Location: Castelnuovo di Porto
(42.1167°N, 12.5000°E)
Time: 13:27:59
(UTC+00:00)

Daily predictions for brighter satellites

Satellite Brightness Start Highest point End
(mag) Time Altitude Azimuth Time Altitude Azimuth Time Altitude Azimuth
Cosmos 1607 4.1 17:11:49 10° NNW 17:18:10 88° WSW 17:24:33 10° SSE
STARLINK-1012 4.0 17:16:49 10° WSW 17:19:58 42° NNW 17:23:07 10° NE
CSL-04 Debris 4.5 17:15:26 10° SE 17:20:38 47° ENE 17:25:51 10° N
FengYun 1-2 T 4.3 17:15:46 10° SSE 17:21:25 90° ESE 17:27:04 10° NNW
STARLINK-1032 3.8 17:17:47 10° SW 17:21:50 58° SE 17:25:55 10° ENE
Sich 1 3.1 17:17:52 10° S 17:22:09 83° W 17:26:27 10° N
STARLINK-1026 4.1 17:20:07 10° WSW 17:23:14 39° NNW 17:26:23 10° NE
NOAA 11 4.3 17:19:24 10° SSE 17:24:41 56° ENE 17:30:00 10° N
STARLINK-1013 4.2 17:21:49 10° W 17:24:56 38° NNW 17:28:04 10° NE
STARLINK-1009 4.2 17:23:29 10° W 17:26:35 37° NNW 17:29:42 10° NE
STARLINK-1011 3.7 17:22:43 10° SW 17:26:48 64° SE 17:30:54 10° ENE
Meteor 1-27 Rocket 3.8 17:22:32 10° N 17:28:01 57° ENE 17:33:33 10° SSE
STARLINK-1015 4.3 17:25:11 10° W 17:28:17 36° NNW 17:31:23 10° NE
Lacrosse 4 Rocket 3.6 17:24:49 10° WSW 17:28:20 25° NW 17:31:55 10° N
Lacrosse 5 rocket 3.9 17:26:55 10° NW 17:28:59 13° N 17:31:05 10° NNE
Cosmos 1470 Rocket 4.1 17:27:17 10° SSE 17:31:16 37° E 17:35:19 10° NNE
STARLINK-1036 3.6 17:27:40 10° SW 17:31:47 70° SE 17:35:54 10° ENE
Cosmos 1943 Rocket 2.2 17:26:35 10° SSW 17:32:11 88° ESE 17:37:46 10° NNE
Gbstr 26 Del rocket 4.2 17:29:25 10° S 17:32:35 23° SE 17:35:48 11° E
Okean-O 3.4 17:28:36 10° S 17:32:57 57° W 17:37:20 10° NNW
STARLINK-1044 3.6 17:32:36 10° SW 17:36:43 77° SE 17:40:52 10° NE
COSMO-SKYMED 1 3.2 17:34:53 10° N 17:39:11 62° WNW 17:43:28 10° SSW
Cosmos 1862 Rocket 3.7 17:35:37 10° N 17:39:51 51° E 17:44:05 10° SSE
Cosmos 1939 Rocket 2.9 17:36:07 10° SSE 17:40:11 62° ENE 17:44:18 10° N
NOSS 3-1 (C) 3.8 17:36:30 10° SW 17:41:54 62° NW 17:48:09 10° NNE
Cosmos 1707 Rocket 4.1 17:37:58 10° NNW 17:42:23 65° W 17:46:48 10° S
CZ-4 R/B 1.7 17:38:59 10° S 17:43:10 78° WSW 17:47:22 10° NNW
STARLINK-1031 3.6 17:39:13 10° SW 17:43:15 84° NW 17:47:09 11° NE
CZ-2C R/B 4.5 17:39:07 10° ESE 17:43:22 22° ENE 17:47:34 10° NNE
Cosmos 1340 2.7 17:42:54 10° S 17:46:33 52° E 17:50:14 10° NNE
STARLINK-1037 3.6 17:42:28 10° SW 17:46:37 89° N 17:50:25 12° NE
GPS 2-04 Rocket1 4.4 17:45:26 10° SW 17:48:43 22° SSE 17:51:18 13° ESE
STARLINK-1059 3.6 17:47:32 10° SW 17:51:40 83° NW 17:55:18 13° NE
Cosmos 921 Rocket 3.8 17:47:36 10° SSW 17:52:02 59° WNW 17:56:31 10° N
CRYOSAT 2 4.3 17:49:36 10° SSE 17:54:25 63° E 17:59:17 10° N
Cosmos 1703 Rocket 4.4 17:52:44 10° NNE 17:56:36 28° ENE 18:00:26 10° SE
STARLINK-1057 3.7 17:52:31 10° WSW 17:56:39 76° NW 18:00:04 15° NE
Okean 1-7 4.1 17:54:03 10° NNE 17:57:35 24° ENE 17:59:21 19° ESE
Meteor 1-25 Rocket 4.5 17:55:07 10° SSE 18:00:30 44° E 18:05:50 10° NNE
STARLINK-1034 3.8 17:57:30 10° WSW 18:01:37 70° NW 18:04:51 16° NE
COSMOS 2487 3.6 17:58:51 10° N 18:01:40 23° ENE 18:01:42 23° ENE
ADEOS Rocket 3.6 17:54:14 10° NNE 18:02:05 77° ESE 18:09:42 10° S
Cosmos 1656 Rocket 3.6 17:59:51 10° S 18:05:13 60° ESE 18:10:44 10° NNE
STARLINK-1068 3.9 18:02:30 10° WSW 18:06:36 65° NW 18:09:37 18° NE
IRS-1A Rocket 4.4 18:02:08 10° SE 18:07:25 49° ENE 18:12:42 10° N
SJ 16-02 2.6 18:04:35 10° N 18:08:01 22° ENE 18:08:07 22° ENE
STARLINK-1061 4.5 18:04:47 10° SSW 18:08:27 31° SE 18:09:32 27° ESE
Aureole 2 Rocket 4.3 18:07:30 10° WSW 18:09:41 23° WNW 18:11:55 10° N
Cosmos 1898 Rocket 4.3 18:05:47 10° N 18:10:17 29° ENE 18:11:47 25° E
HJ-1C 3.2 18:07:17 10° SSE 18:10:33 66° ENE 18:13:50 10° N
Cosmos 1464 Rocket 4.2 18:06:42 10° SSE 18:12:45 49° E 18:18:51 10° NNE
STARLINK-1067 4.3 18:09:38 10° SSW 18:13:24 34° SE 18:14:19 30° ESE
NOSS 2-3 (E) 4.1 18:11:12 10° SW 18:15:25 63° NW 18:20:24 10° NNE
SJ-6B 4.1 18:16:54 22° NE 18:16:54 22° NE 18:18:59 10° NNE
YAOGAN 1 3.9 18:12:27 10° S 18:16:33 43° W 18:20:41 10° NNW
STARLINK-1060 4.2 18:12:31 10° WSW 18:16:35 55° NNW 18:19:11 21° NE
Cosmos 2369 Rocket 3.0 18:12:37 10° SW 18:18:07 52° WNW 18:23:41 10° NNE
STARLINK-1058 4.2 18:14:29 10° SSW 18:18:19 38° SE 18:19:04 34° ESE
STARLINK-1030 4.3 18:17:34 10° WSW 18:21:37 51° NNW 18:24:00 22° NE
STARLINK-1043 4.0 18:19:25 10° SSW 18:23:18 41° SE 18:23:53 39° ESE
Cosmos 2285 Rocket 4.0 18:17:53 10° NNW 18:24:17 87° WSW 18:30:41 10° SSE
Cosmos 1763 Rocket 3.9 18:20:37 10° SSE 18:25:21 37° ESE 18:27:08 29° ENE
STARLINK-1020 4.4 18:22:34 10° WSW 18:26:34 47° NNW 18:28:45 24° NNE
STARLINK-1047 4.5 18:23:24 10° WSW 18:27:25 46° NNW 18:29:37 24° NNE
STARLINK-1065 3.9 18:24:15 10° SSW 18:28:12 45° SE 18:28:36 44° ESE
Cosmos 1933 Rocket 3.8 18:24:52 10° SSW 18:29:16 69° W 18:33:39 10° N
Hubble Space Telescope 3.1 18:28:19 10° SSW 18:29:57 12° S 18:30:42 12° SSE
NOSS 2-3 (D) 4.5 18:26:17 10° SW 18:30:28 50° NW 18:35:21 10° NNE
Cosmos 1833 4.1 18:24:51 10° NNW 18:30:39 86° ENE 18:36:05 11° SSE
Cosmos 2034 Rocket 4.1 18:26:44 10° SSE 18:32:37 49° E 18:38:30 10° NNE
STARLINK-1063 3.8 18:29:12 10° SSW 18:33:11 50° SE 18:33:25 49° SE
STARLINK-29 2.9 18:30:12 10° NW 18:33:35 83° NE 18:33:41 81° ENE
Cosmos 44 3.8 18:33:06 10° NW 18:37:25 53° WSW 18:41:10 14° SSE
STARLINK-1064 3.7 18:34:06 10° SW 18:38:08 55° SE 18:38:11 55° SE
Cosmos 1346 Rocket 3.9 18:34:22 10° SSW 18:38:11 45° WNW 18:42:01 10° N
SJ-11-01 4.2 18:34:00 10° SSE 18:38:40 84° WSW 18:43:21 10° NNW
NOSS 3-1 (A) 4.5 18:34:33 10° WSW 18:39:48 41° NW 18:45:52 10° NNE
Ariane Rocket 3.0 18:34:50 10° SSE 18:39:55 80° WSW 18:45:04 10° NNW
ARGOS 3.1 18:39:13 25° SE 18:42:20 63° ENE 18:47:43 10° N
STARLINK-1041 3.6 18:39:02 10° SW 18:42:58 60° SSE 18:42:58 60° SSE
FALCON 9 DEB 3.4 18:41:39 10° WNW 18:45:00 63° SW 18:45:00 63° SW
STARLINK-52 3.4 18:42:27 10° NW 18:45:22 64° WNW 18:45:22 64° WNW
STARLINK-1038 3.6 18:44:00 10° SW 18:47:47 64° S 18:47:47 64° S
FALCON 9 R/B 4.4 18:31:47 10° W 18:50:43 37° SW 18:55:58 15° SSE
CENTAUR R/B 4.5 18:46:24 10° NNW 18:52:02 21° NNE 18:54:06 19° NE
STARLINK-1046 3.7 18:48:55 10° SW 18:52:32 64° SSW 18:52:32 64° SSW
Meteor 2-11 Rocket 4.4 18:46:58 10° S 18:53:04 85° W 18:59:12 10° N
H-2A R/B 2.1 18:48:32 14° SSE 18:53:16 90° WSW 18:58:44 10° NNW
ARGOS Delta rocket 4.2 18:57:38 44° NNE 18:57:38 44° NNE 19:00:49 10° N
Cosmos 990 Rocket 3.8 18:52:47 10° NNW 18:57:56 73° ENE 18:58:21 69° ESE
STARLINK-1039 3.9 18:53:52 10° SW 18:57:19 60° SSW 18:57:19 60° SSW
MOS 1 4.3 18:53:17 10° S 18:58:56 78° WSW 19:04:38 10° NNW
Cosmos 1092 Rocket 4.4 18:53:25 10° N 18:58:49 43° ENE 18:58:49 43° ENE
Lacrosse 5 2.5 18:54:49 10° SSW 18:58:30 41° S 18:58:30 41° S
Meteor 1-18 Rocket 4.3 18:55:48 10° NNW 19:01:44 81° W 19:06:53 13° S
STARLINK-1045 4.1 18:58:51 10° SW 19:02:07 55° SW 19:02:07 55° SW
Cosmos 2297 Rocket 3.9 18:59:51 10° N 19:02:15 18° NNE 19:02:15 18° NNE
Cosmos 1937 Rocket 3.7 19:00:45 10° NNW 19:05:16 56° NNE 19:05:16 56° NNE
STARLINK-1050 4.3 19:03:54 10° SW 19:07:01 50° WSW 19:07:01 50° WSW
Okean 1 4.0 19:05:03 10° NNW 19:08:22 51° NW 19:08:22 51° NW
Lacrosse 5 rocket 3.8 19:07:13 10° NNW 19:09:19 15° N 19:09:19 15° N
SL-24 DEB 4.3 19:10:49 79° WNW 19:10:49 79° WNW 19:15:22 10° N
Resurs 01 Rocket 4.0 19:15:30 14° N 19:15:30 14° N 19:16:10 10° N
SL-08 RB Rocket 4.5 19:14:23 43° NNW 19:14:23 43° NNW 19:17:25 10° NNW
Meteor 1-14 Rocket 4.4 19:08:23 10° SSW 19:13:52 67° WNW 19:19:24 10° N
Gbstr 26 Del rocket 3.7 19:14:52 10° WSW 19:18:23 54° WNW 19:18:23 54° WNW
Cosmos 2227 Rocket 4.0 19:18:00 10° N 19:20:07 19° NNE 19:20:07 19° NNE
CZ-2C R/B 3.7 19:19:00 22° S 19:22:44 62° W 19:28:26 10° NNW
USA 267 3.7 19:33:08 46° S 19:33:08 46° S 19:37:49 10° SSW
SPOT 3 Rocket 4.0 19:36:24 57° WNW 19:36:24 57° WNW 19:41:03 10° NNW
Meteor 2-4 Rocket 4.2 19:37:10 10° NNW 19:42:11 62° NW 19:42:11 62° NW
SJ 16-02 3.3 19:42:40 10° NW 19:45:09 27° WNW 19:45:09 27° WNW
USA 234 4.2 20:06:31 38° N 20:06:31 38° N 20:11:07 10° NW
CENTAUR R/B 4.1 20:36:38 10° NNW 20:41:17 37° N 20:41:17 37° N
